OKEAN-0
1 25860U 99039A 11055.79564505 .00000191 00000-0 36692-4 0 2381
2 25860 097.8695 025.4281 0001488 045.8381 314.2940 14.73714577624101
NOAA-16
1 26536U 00055A 11054.89057462 -.00000029 00000-0 95912-5 0 02002
2 26536 099.1526 083.0708 0010322 355.1200 004.9844 14.12598846537367
NOAA-17
1 27453U 02032A 11054.78958925 .00000226 00000-0 11565-3 0 01962
2 27453 098.3948 099.6288 0012615 119.1959 241.0471 14.24239757450514
NOAA-18
1 28654U 05018A 11054.82134215 .00000076 00000-0 66502-4 0 06809
2 28654 098.9839 005.7689 0015192 065.1317 295.1427 14.11439647296938
NOAA-19
1 33591U 09005A 11054.93528720 .00000006 00000-0 27352-4 0 08754
2 33591 098.8169 357.0540 0013441 299.4813 060.5006 14.11132658105417
HUBBLE
1 20580U 90037B 11055.10470320 .00000915 00000-0 56921-4 0 7173
2 20580 028.4713 035.0381 0002994 359.4486 000.6204 15.01175986942645
ISS
1 25544U 98067A 11056.06484444 .00017128 00000-0 12835-3 0 8964
2 25544 051.6462 015.9176 0004433 356.1322 100.6673 15.72757947703255
CO-58
1 28895U 05043F 11055.60605558 .00000315 00000-0 74952-4 0 8080
2 28895 097.9830 296.2431 0016942 211.4125 148.6069 14.60014039283819
FALCON
1 30776U 07006E 11055.88732147 .00001453 00000-0 10561-3 0 291
2 30776 035.4350 309.5735 0001217 255.8705 104.1869 15.04148204218122
MAST
1 31126U 07012K 11055.63639133 .00000086 00000-0 29550-4 0 922
2 31126 097.9069 089.1631 0094645 160.4862 199.9970 14.53677189204739
CAPE1
1 31130U 07012P 11055.65455022 .00000146 00000-0 44038-4 0 1120
2 31130 097.9117 086.1218 0103080 170.1423 190.1769 14.52295048204302
COMPASS
1 32787U 08021E 11054.66964655 .00000691 00000-0 93294-4 0 09195
2 32787 097.8598 120.5526 0015503 182.9124 177.2042 14.82155050152740
AAUSAT2
1 32788U 08021F 11054.64686416 .00000650 00000-0 87756-4 0 09078
2 32788 097.8599 120.7180 0015016 184.0444 176.0636 14.82319863152758
DO-64
1 32789U 08021G 11055.76624639 .00001306 00000-0 16844-3 0 9249
2 32789 097.8685 122.6279 0015600 178.2542 181.8687 14.82624039152921
CO-66
1 32791U 08021J 11055.67713868 .00000548 00000-0 75736-4 0 9080
2 32791 097.8597 121.5138 0015924 178.8254 181.3006 14.81894744152845
RS-30
1 32953U 08025A 11055.54337508 .00000010 00000-0 00000 0 0 4999
2 32953 082.4966 232.7454 0018093 272.7010 087.1997 12.43010627125090
TACSAT-3
1 35001U 09028A 11055.61242861 .00009225 00000-0 19384-3 0 5127
2 35001 040.4542 134.4454 0021377 092.4859 267.8402 15.45046996 99648
PHARMSAT
1 35002U 09028B 11055.57086067 .00009086 00000-0 18951-3 0 4771
2 35002 040.4680 132.1755 0023513 096.4554 263.8943 15.45226919 99664
HAWKSAT1
1 35003U 09028C 11055.59645682 .00024504 00000-0 38584-3 0 5236
2 35003 040.4595 115.4846 0022844 126.4088 233.8839 15.52660707 99854
CP6
1 35004U 09028D 11055.47596947 .00030080 00000-0 43210-3 0 5275
2 35004 040.4605 111.8163 0021817 133.1705 227.0885 15.55119280 99875
AEROCUB3
1 35005U 09028E 11006.09222617 .14049365 73043-5 82692-3 0 6103
2 35005 040.4461 021.7975 0025578 084.1677 280.7191 16.39196088 92544
METEOR-M
1 35865U 09049A 11055.69786802 .00000176 00000-0 10000-3 0 1313
2 35865 098.7219 112.2101 0002819 013.3527 346.7676 14.21834628 74609
RS-38
1 35869U 09049E 11055.71143031 .00000177 00000-0 10000-3 0 1424
2 35869 098.7200 112.2653 0004844 006.4233 353.6970 14.22000714 74619
